This is the latest recevied weather packets stored in our database for station/object SP6PGH-13. If no packets are shown the sender has not sent any weather packets the latest 10 day(s).
| Time | Temp. | Humidity | Pressure | Rain* | Wind** | Luminosity | Snow |
|---|---|---|---|---|---|---|---|
| 1777518673 | -3.89° C | 88% | 1017.2 hPa | - | - | - | - |
| 1777517773 | -3.89° C | 86% | 1017.3 hPa | - | - | - | - |
| 1777516871 | -3.33° C | 86% | 1017.3 hPa | - | - | - | - |
| 1777515970 | -3.33° C | 85% | 1017.2 hPa | - | - | - | - |
| 1777515069 | -3.33° C | 86% | 1017.1 hPa | - | - | - | - |
| 1777514168 | -2.78° C | 83% | 1017.1 hPa | - | - | - | - |
| 1777513267 | -2.78° C | 83% | 1016.8 hPa | - | - | - | - |
| 1777512366 | -2.22° C | 83% | 1016.7 hPa | - | - | - | - |
| 1777511465 | -2.22° C | 84% | 1016.6 hPa | - | - | - | - |
| 1777510564 | -2.78° C | 83% | 1016.5 hPa | - | - | - | - |
| 1777509663 | -2.22° C | 83% | 1016.5 hPa | - | - | - | - |
| 1777508762 | -1.67° C | 81% | 1016.5 hPa | - | - | - | - |
| 1777507861 | -1.67° C | 79% | 1016.6 hPa | - | - | - | - |
| 1777506960 | -2.78° C | 80% | 1016.6 hPa | - | - | - | - |
| 1777506060 | -1.67° C | 78% | 1016.6 hPa | - | - | - | - |
| 1777505158 | -1.67° C | 77% | 1016.8 hPa | - | - | - | - |
| 1777504258 | -1.67° C | 77% | 1016.8 hPa | - | - | - | - |
| 1777503356 | -1.11° C | 75% | 1016.7 hPa | - | - | - | - |
| 1777502455 | -0.56° C | 73% | 1016.7 hPa | - | - | - | - |
| 1777501554 | -0.56° C | 73% | 1016.6 hPa | - | - | - | - |
| 1777500653 | -0.56° C | 72% | 1016.5 hPa | - | - | - | - |
| 1777499752 | 0° C | 71% | 1016.5 hPa | - | - | - | - |
| 1777498851 | 0° C | 69% | 1016.4 hPa | - | - | - | - |
| 1777497950 | 0° C | 69% | 1016.4 hPa | - | - | - | - |
| 1777497049 | 0.56° C | 69% | 1016.3 hPa | - | - | - | - |
* Rain since midnight (hover to see other rain measurements)
** Current wind speed in m/s (hover to see current wind gust speed)